Time,TemperatureF,DewpointF,PressureIn,WindDirection,WindDirectionDegrees,WindSpeedMPH,WindSpeedGustMPH,Humidity,HourlyPrecipIn,Conditions,Clouds,dailyrainin,SoftwareType,DateUTC
2013-02-27 00:00:00,71.2,66.8,29.91,WNW,287,0.0,0.0,86,0.00,,,0.00,Wunderground v.1.15,2013-02-27 05:00:00,
2013-02-27 00:05:00,71.1,66.7,29.90,WNW,288,0.0,0.0,86,0.00,,,0.00,Wunderground v.1.15,2013-02-27 05:05:00,
2013-02-27 00:10:00,70.9,66.2,29.90,WNW,288,0.0,5.0,85,0.00,,,0.00,Wunderground v.1.15,2013-02-27 05:10:00,
2013-02-27 00:15:00,70.7,66.3,29.90,WNW,288,1.0,5.0,86,0.00,,,0.00,Wunderground v.1.15,2013-02-27 05:15:00,
2013-02-27 00:20:00,70.5,66.1,29.91,WNW,288,1.0,1.0,86,0.00,,,0.00,Wunderground v.1.15,2013-02-27 05:20:00,
2013-02-27 00:25:00,70.4,66.3,29.91,WNW,288,1.0,1.0,87,0.00,,,0.00,Wunderground v.1.15,2013-02-27 05:25:00,
2013-02-27 00:30:00,70.3,66.2,29.91,WNW,288,2.0,2.0,87,0.00,,,0.00,Wunderground v.1.15,2013-02-27 05:30:00,
2013-02-27 00:40:00,70.1,66.0,29.91,WNW,288,0.0,0.0,87,0.00,,,0.00,Wunderground v.1.15,2013-02-27 05:40:00,
2013-02-27 00:45:00,70.0,66.0,29.92,WNW,288,0.0,0.0,87,0.00,,,0.00,Wunderground v.1.15,2013-02-27 05:45:00,
2013-02-27 00:50:00,69.9,65.9,29.92,WNW,288,0.0,0.0,87,0.00,,,0.00,Wunderground v.1.15,2013-02-27 05:50:00,
2013-02-27 01:00:00,69.9,66.2,29.92,WNW,288,0.0,0.0,88,0.00,,,0.00,Wunderground v.1.15,2013-02-27 06:00:00,
2013-02-27 01:10:00,70.0,66.0,29.92,WNW,288,0.0,0.0,87,0.00,,,0.00,Wunderground v.1.15,2013-02-27 06:10:00,
2013-02-27 01:15:00,70.0,66.0,29.92,WNW,288,0.0,0.0,87,0.00,,,0.00,Wunderground v.1.15,2013-02-27 06:15:00,
2013-02-27 01:20:00,70.1,65.7,29.92,WNW,288,0.0,0.0,86,0.00,,,0.00,Wunderground v.1.15,2013-02-27 06:20:00,
2013-02-27 01:25:00,70.1,65.7,29.92,WNW,288,0.0,0.0,86,0.00,,,0.00,Wunderground v.1.15,2013-02-27 06:25:00,
2013-02-27 01:30:00,70.1,66.0,29.92,WNW,288,0.0,0.0,87,0.00,,,0.00,Wunderground v.1.15,2013-02-27 06:30:00,
2013-02-27 01:35:00,70.0,65.6,29.92,WNW,288,0.0,0.0,86,0.00,,,0.00,Wunderground v.1.15,2013-02-27 06:35:00,
2013-02-27 01:45:00,69.7,65.3,29.92,WNW,288,0.0,0.0,86,0.00,,,0.00,Wunderground v.1.15,2013-02-27 06:45:00,
2013-02-27 01:50:00,69.5,65.8,29.91,WNW,288,0.0,0.0,88,0.00,,,0.00,Wunderground v.1.15,2013-02-27 06:50:00,
2013-02-27 01:55:00,69.4,65.7,29.91,WNW,288,0.0,0.0,88,0.00,,,0.00,Wunderground v.1.15,2013-02-27 06:55:00,
2013-02-27 02:00:00,69.2,65.5,29.92,WNW,288,0.0,0.0,88,0.00,,,0.00,Wunderground v.1.15,2013-02-27 07:00:00,
2013-02-27 02:10:00,69.1,65.7,29.91,WNW,288,0.0,0.0,89,0.00,,,0.00,Wunderground v.1.15,2013-02-27 07:10:00,
2013-02-27 02:20:00,68.9,65.8,29.92,WNW,288,0.0,0.0,90,0.00,,,0.00,Wunderground v.1.15,2013-02-27 07:20:00,
2013-02-27 02:25:00,68.8,65.7,29.91,WNW,288,0.0,0.0,90,0.00,,,0.00,Wunderground v.1.15,2013-02-27 07:25:00,
2013-02-27 02:30:00,68.7,65.6,29.91,WNW,288,0.0,0.0,90,0.00,,,0.00,Wunderground v.1.15,2013-02-27 07:30:00,
2013-02-27 02:35:00,68.6,65.5,29.91,WNW,288,0.0,0.0,90,0.00,,,0.00,Wunderground v.1.15,2013-02-27 07:35:00,
2013-02-27 02:40:00,68.6,65.5,29.91,WNW,288,0.0,0.0,90,0.00,,,0.00,Wunderground v.1.15,2013-02-27 07:40:00,
2013-02-27 02:45:00,68.5,65.4,29.91,WNW,288,0.0,0.0,90,0.00,,,0.00,Wunderground v.1.15,2013-02-27 07:45:00,
2013-02-27 02:55:00,68.6,65.2,29.90,WNW,288,0.0,0.0,89,0.00,,,0.00,Wunderground v.1.15,2013-02-27 07:55:00,
2013-02-27 03:00:00,68.7,65.3,29.90,WNW,288,0.0,0.0,89,0.00,,,0.00,Wunderground v.1.15,2013-02-27 08:00:00,
2013-02-27 03:10:00,68.6,65.5,29.90,WNW,288,0.0,0.0,90,0.00,,,0.00,Wunderground v.1.15,2013-02-27 08:10:00,
2013-02-27 03:15:00,68.5,65.4,29.90,WNW,288,0.0,0.0,90,0.00,,,0.00,Wunderground v.1.15,2013-02-27 08:15:00,
2013-02-27 03:20:00,68.3,65.6,29.90,WNW,288,0.0,0.0,91,0.00,,,0.00,Wunderground v.1.15,2013-02-27 08:20:00,
2013-02-27 03:30:00,68.1,65.4,29.90,WNW,288,0.0,0.0,91,0.00,,,0.00,Wunderground v.1.15,2013-02-27 08:30:00,
2013-02-27 03:35:00,68.1,65.7,29.90,WNW,288,0.0,0.0,92,0.00,,,0.00,Wunderground v.1.15,2013-02-27 08:35:00,
2013-02-27 03:40:00,68.1,65.4,29.89,WNW,288,0.0,0.0,91,0.00,,,0.00,Wunderground v.1.15,2013-02-27 08:40:00,
2013-02-27 03:45:00,68.1,65.4,29.89,WNW,288,0.0,0.0,91,0.00,,,0.00,Wunderground v.1.15,2013-02-27 08:45:00,
2013-02-27 03:50:00,68.1,65.4,29.90,WNW,288,0.0,0.0,91,0.00,,,0.00,Wunderground v.1.15,2013-02-27 08:50:00,
2013-02-27 04:00:00,68.0,65.3,29.90,WNW,288,0.0,0.0,91,0.00,,,0.00,Wunderground v.1.15,2013-02-27 09:00:00,
2013-02-27 04:10:00,67.9,65.5,29.90,WNW,288,0.0,0.0,92,0.00,,,0.00,Wunderground v.1.15,2013-02-27 09:10:00,
2013-02-27 04:15:00,67.8,65.4,29.91,WNW,288,0.0,0.0,92,0.00,,,0.00,Wunderground v.1.15,2013-02-27 09:15:00,
2013-02-27 04:20:00,67.5,65.1,29.91,WNW,288,0.0,0.0,92,0.00,,,0.00,Wunderground v.1.15,2013-02-27 09:20:00,
2013-02-27 04:25:00,67.2,64.8,29.91,WNW,288,0.0,0.0,92,0.00,,,0.00,Wunderground v.1.15,2013-02-27 09:25:00,
2013-02-27 04:30:00,67.4,65.0,29.91,WNW,288,0.0,0.0,92,0.00,,,0.00,Wunderground v.1.15,2013-02-27 09:30:00,
2013-02-27 04:35:00,67.6,65.2,29.91,WNW,288,1.0,1.0,92,0.00,,,0.00,Wunderground v.1.15,2013-02-27 09:35:00,
2013-02-27 04:40:00,67.5,65.1,29.92,WNW,288,1.0,1.0,92,0.00,,,0.00,Wunderground v.1.15,2013-02-27 09:40:00,
2013-02-27 04:45:00,67.5,65.1,29.92,WNW,288,0.0,1.0,92,0.00,,,0.00,Wunderground v.1.15,2013-02-27 09:45:00,
2013-02-27 04:50:00,67.5,65.1,29.92,WNW,288,0.0,0.0,92,0.00,,,0.00,Wunderground v.1.15,2013-02-27 09:50:00,
2013-02-27 04:55:00,67.5,65.1,29.92,WNW,288,0.0,0.0,92,0.00,,,0.00,Wunderground v.1.15,2013-02-27 09:55:00,
2013-02-27 05:00:00,67.4,65.0,29.92,WNW,288,0.0,0.0,92,0.00,,,0.00,Wunderground v.1.15,2013-02-27 10:00:00,
2013-02-27 05:10:00,67.2,65.1,29.93,WNW,289,1.0,1.0,93,0.00,,,0.00,Wunderground v.1.15,2013-02-27 10:10:00,
2013-02-27 05:15:00,67.1,65.0,29.93,WNW,289,1.0,1.0,93,0.00,,,0.00,Wunderground v.1.15,2013-02-27 10:15:00,
2013-02-27 05:20:00,67.0,64.9,29.93,WNW,289,0.0,0.0,93,0.00,,,0.00,Wunderground v.1.15,2013-02-27 10:20:00,
2013-02-27 05:25:00,67.0,64.9,29.93,WNW,290,0.0,0.0,93,0.00,,,0.00,Wunderground v.1.15,2013-02-27 10:25:00,
2013-02-27 05:30:00,67.1,65.0,29.93,WNW,290,0.0,0.0,93,0.00,,,0.00,Wunderground v.1.15,2013-02-27 10:30:00,
2013-02-27 05:40:00,67.0,64.9,29.93,WNW,290,0.0,0.0,93,0.00,,,0.00,Wunderground v.1.15,2013-02-27 10:40:00,
2013-02-27 05:45:00,67.0,64.9,29.93,WNW,290,0.0,0.0,93,0.00,,,0.00,Wunderground v.1.15,2013-02-27 10:45:00,
2013-02-27 05:50:00,66.9,64.8,29.93,WNW,290,0.0,0.0,93,0.00,,,0.00,Wunderground v.1.15,2013-02-27 10:50:00,
2013-02-27 05:55:00,67.0,64.9,29.94,WNW,290,0.0,0.0,93,0.00,,,0.00,Wunderground v.1.15,2013-02-27 10:55:00,
2013-02-27 06:00:00,66.9,64.8,29.93,WNW,290,0.0,0.0,93,0.00,,,0.00,Wunderground v.1.15,2013-02-27 11:00:00,
2013-02-27 06:10:00,66.8,64.7,29.94,WNW,290,0.0,0.0,93,0.00,,,0.00,Wunderground v.1.15,2013-02-27 11:10:00,
2013-02-27 06:15:00,66.8,65.0,29.94,WNW,290,0.0,0.0,94,0.00,,,0.00,Wunderground v.1.15,2013-02-27 11:15:00,
2013-02-27 06:20:00,66.9,65.1,29.94,WNW,290,0.0,0.0,94,0.00,,,0.00,Wunderground v.1.15,2013-02-27 11:20:00,
2013-02-27 06:25:00,66.9,65.1,29.95,WNW,290,0.0,0.0,94,0.00,,,0.00,Wunderground v.1.15,2013-02-27 11:25:00,
2013-02-27 06:30:00,66.9,64.8,29.94,WNW,290,0.0,0.0,93,0.00,,,0.00,Wunderground v.1.15,2013-02-27 11:30:00,
2013-02-27 06:35:00,66.8,64.7,29.94,WNW,290,0.0,0.0,93,0.00,,,0.00,Wunderground v.1.15,2013-02-27 11:35:00,
2013-02-27 06:40:00,66.8,64.7,29.94,WNW,290,0.0,0.0,93,0.00,,,0.00,Wunderground v.1.15,2013-02-27 11:40:00,
2013-02-27 06:50:00,66.7,64.6,29.94,WNW,290,0.0,0.0,93,0.00,,,0.00,Wunderground v.1.15,2013-02-27 11:50:00,
2013-02-27 06:55:00,66.6,64.5,29.95,WNW,290,0.0,0.0,93,0.00,,,0.00,Wunderground v.1.15,2013-02-27 11:55:00,
2013-02-27 07:00:00,66.6,64.5,29.95,WNW,290,0.0,0.0,93,0.00,,,0.00,Wunderground v.1.15,2013-02-27 12:00:00,
2013-02-27 07:10:00,66.5,64.7,29.95,WNW,290,0.0,0.0,94,0.00,,,0.00,Wunderground v.1.15,2013-02-27 12:10:00,
2013-02-27 07:15:00,66.4,64.6,29.95,WNW,290,0.0,0.0,94,0.00,,,0.00,Wunderground v.1.15,2013-02-27 12:15:00,
2013-02-27 07:25:00,66.3,64.5,29.95,WNW,290,0.0,0.0,94,0.00,,,0.00,Wunderground v.1.15,2013-02-27 12:25:00,
2013-02-27 07:30:00,66.4,64.3,29.95,WNW,290,0.0,0.0,93,0.00,,,0.00,Wunderground v.1.15,2013-02-27 12:30:00,
2013-02-27 07:35:00,66.5,64.4,29.96,WNW,290,0.0,0.0,93,0.00,,,0.00,Wunderground v.1.15,2013-02-27 12:35:00,
2013-02-27 07:40:00,66.6,64.5,29.96,WNW,290,0.0,0.0,93,0.00,,,0.00,Wunderground v.1.15,2013-02-27 12:40:00,
2013-02-27 07:45:00,66.6,64.5,29.96,WNW,290,0.0,0.0,93,0.00,,,0.00,Wunderground v.1.15,2013-02-27 12:45:00,
2013-02-27 07:55:00,66.9,64.5,29.96,WNW,291,0.0,0.0,92,0.00,,,0.00,Wunderground v.1.15,2013-02-27 12:55:00,
2013-02-27 08:00:00,67.1,64.7,29.95,WNW,292,0.0,0.0,92,0.00,,,0.00,Wunderground v.1.15,2013-02-27 13:00:00,
2013-02-27 08:10:00,67.4,64.4,29.96,NW,304,2.0,2.0,90,0.00,,,0.00,Wunderground v.1.15,2013-02-27 13:10:00,
2013-02-27 08:15:00,67.6,64.2,29.97,NW,310,1.0,2.0,89,0.00,,,0.00,Wunderground v.1.15,2013-02-27 13:15:00,
2013-02-27 08:25:00,67.8,63.8,29.96,NW,311,0.0,2.0,87,0.00,,,0.00,Wunderground v.1.15,2013-02-27 13:25:00,
2013-02-27 08:30:00,68.0,64.0,29.97,NW,316,1.0,2.0,87,0.00,,,0.00,Wunderground v.1.15,2013-02-27 13:30:00,
2013-02-27 08:35:00,68.4,63.7,29.97,NW,315,1.0,2.0,85,0.00,,,0.00,Wunderground v.1.15,2013-02-27 13:35:00,
2013-02-27 08:40:00,68.9,63.5,29.97,NW,315,1.0,1.0,83,0.00,,,0.00,Wunderground v.1.15,2013-02-27 13:40:00,
2013-02-27 08:45:00,69.0,62.9,29.97,NW,318,0.0,1.0,81,0.00,,,0.00,Wunderground v.1.15,2013-02-27 13:45:00,
2013-02-27 08:50:00,69.1,63.0,29.97,NW,321,0.0,0.0,81,0.00,,,0.00,Wunderground v.1.15,2013-02-27 13:50:00,
2013-02-27 08:55:00,69.0,62.9,29.98,NW,321,1.0,1.0,81,0.00,,,0.00,Wunderground v.1.15,2013-02-27 13:55:00,
2013-02-27 09:00:00,69.1,62.7,29.97,NW,317,1.0,1.0,80,0.00,,,0.00,Wunderground v.1.15,2013-02-27 14:00:00,
2013-02-27 09:10:00,69.1,61.9,29.98,NW,317,4.0,8.0,78,0.00,,,0.00,Wunderground v.1.15,2013-02-27 14:10:00,
2013-02-27 09:15:00,69.2,61.7,29.98,NW,317,3.0,8.0,77,0.00,,,0.00,Wunderground v.1.15,2013-02-27 14:15:00,
2013-02-27 09:20:00,69.3,61.8,29.98,NW,319,2.0,2.0,77,0.00,,,0.00,Wunderground v.1.15,2013-02-27 14:20:00,
2013-02-27 09:25:00,69.4,61.5,29.98,NW,317,2.0,8.0,76,0.00,,,0.00,Wunderground v.1.15,2013-02-27 14:25:00,
2013-02-27 09:35:00,70.0,60.9,29.99,NW,319,1.0,4.0,73,0.00,,,0.00,Wunderground v.1.15,2013-02-27 14:35:00,
2013-02-27 09:40:00,69.9,60.8,29.99,NW,315,4.0,9.0,73,0.00,,,0.00,Wunderground v.1.15,2013-02-27 14:40:00,
2013-02-27 09:45:00,70.0,61.3,29.99,NNW,333,5.0,9.0,74,0.00,,,0.00,Wunderground v.1.15,2013-02-27 14:45:00,
2013-02-27 09:50:00,70.1,61.8,29.99,NNW,340,4.0,4.0,75,0.00,,,0.00,Wunderground v.1.15,2013-02-27 14:50:00,
2013-02-27 09:55:00,70.6,62.3,29.99,NW,318,4.0,8.0,75,0.00,,,0.00,Wunderground v.1.15,2013-02-27 14:55:00,
2013-02-27 10:00:00,70.6,61.9,30.00,NW,326,4.0,7.0,74,0.00,,,0.00,Wunderground v.1.15,2013-02-27 15:00:00,
2013-02-27 10:10:00,70.8,62.1,30.00,NW,319,4.0,4.0,74,0.00,,,0.00,Wunderground v.1.15,2013-02-27 15:10:00,
2013-02-27 10:15:00,71.3,62.2,30.00,NW,319,3.0,7.0,73,0.00,,,0.00,Wunderground v.1.15,2013-02-27 15:15:00,
2013-02-27 10:20:00,70.7,61.6,30.00,NW,309,4.0,7.0,73,0.00,,,0.00,Wunderground v.1.15,2013-02-27 15:20:00,
2013-02-27 10:25:00,70.8,62.1,30.00,NW,309,5.0,7.0,74,0.00,,,0.00,Wunderground v.1.15,2013-02-27 15:25:00,
2013-02-27 10:35:00,71.3,62.2,30.00,NW,313,3.0,7.0,73,0.00,,,0.00,Wunderground v.1.15,2013-02-27 15:35:00,
2013-02-27 10:45:00,71.3,61.8,30.00,NW,313,4.0,11.0,72,0.00,,,0.00,Wunderground v.1.15,2013-02-27 15:45:00,
2013-02-27 10:50:00,71.4,61.9,29.99,NW,313,3.0,7.0,72,0.00,,,0.00,Wunderground v.1.15,2013-02-27 15:50:00,
2013-02-27 10:55:00,71.8,62.3,30.00,NW,313,2.0,7.0,72,0.00,,,0.00,Wunderground v.1.15,2013-02-27 15:55:00,
2013-02-27 11:00:00,71.9,62.0,30.00,NW,313,1.0,7.0,71,0.00,,,0.00,Wunderground v.1.15,2013-02-27 16:00:00,
2013-02-27 11:10:00,71.9,62.4,29.99,NW,314,1.0,7.0,72,0.00,,,0.00,Wunderground v.1.15,2013-02-27 16:10:00,
2013-02-27 11:20:00,71.7,62.6,29.99,NW,316,4.0,4.0,73,0.00,,,0.00,Wunderground v.1.15,2013-02-27 16:20:00,
2013-02-27 11:25:00,72.1,62.2,30.00,NW,316,2.0,6.0,71,0.00,,,0.00,Wunderground v.1.15,2013-02-27 16:25:00,
2013-02-27 11:30:00,71.9,62.4,30.00,NW,316,2.0,7.0,72,0.00,,,0.00,Wunderground v.1.15,2013-02-27 16:30:00,
2013-02-27 11:35:00,71.4,62.3,30.00,NW,317,3.0,7.0,73,0.00,,,0.00,Wunderground v.1.15,2013-02-27 16:35:00,
2013-02-27 11:40:00,71.3,62.2,30.00,NW,317,2.0,2.0,73,0.00,,,0.00,Wunderground v.1.15,2013-02-27 16:40:00,
2013-02-27 11:50:00,71.1,62.4,30.00,NW,316,1.0,1.0,74,0.00,,,0.00,Wunderground v.1.15,2013-02-27 16:50:00,
2013-02-27 11:55:00,71.5,62.8,29.99,NW,316,1.0,7.0,74,0.00,,,0.00,Wunderground v.1.15,2013-02-27 16:55:00,
2013-02-27 12:00:00,72.2,62.7,29.99,NW,316,0.0,0.0,72,0.00,,,0.00,Wunderground v.1.15,2013-02-27 17:00:00,
2013-02-27 12:10:00,71.6,62.5,29.99,NW,316,0.0,2.0,73,0.00,,,0.00,Wunderground v.1.15,2013-02-27 17:10:00,
2013-02-27 12:15:00,71.3,63.0,29.99,NW,316,0.0,2.0,75,0.00,,,0.00,Wunderground v.1.15,2013-02-27 17:15:00,
2013-02-27 12:25:00,71.3,64.4,29.99,NW,316,0.0,0.0,79,0.00,,,0.00,Wunderground v.1.15,2013-02-27 17:25:00,
2013-02-27 12:30:00,71.3,64.1,29.98,NW,316,0.0,0.0,78,0.00,,,0.00,Wunderground v.1.15,2013-02-27 17:30:00,
2013-02-27 12:35:00,71.4,64.9,29.98,NW,316,0.0,0.0,80,0.00,,,0.00,Wunderground v.1.15,2013-02-27 17:35:00,
2013-02-27 12:40:00,71.2,61.7,29.98,NW,316,0.0,0.0,72,0.00,,,0.00,Wunderground v.1.15,2013-02-27 17:40:00,
2013-02-27 12:45:00,71.2,61.7,29.97,NW,316,0.0,0.0,72,0.00,,,0.00,Wunderground v.1.15,2013-02-27 17:45:00,
2013-02-27 12:50:00,71.2,62.1,29.98,NW,316,0.0,0.0,73,0.00,,,0.00,Wunderground v.1.15,2013-02-27 17:50:00,
2013-02-27 13:00:00,71.4,62.7,29.97,NW,316,0.0,0.0,74,0.00,,,0.00,Wunderground v.1.15,2013-02-27 18:00:00,
2013-02-27 13:10:00,72.0,63.3,29.97,NW,316,0.0,0.0,74,0.00,,,0.00,Wunderground v.1.15,2013-02-27 18:10:00,
2013-02-27 13:15:00,72.4,62.5,29.95,NW,316,0.0,0.0,71,0.00,,,0.00,Wunderground v.1.15,2013-02-27 18:15:00,
2013-02-27 13:20:00,72.8,64.0,29.96,NW,316,0.0,0.0,74,0.00,,,0.00,Wunderground v.1.15,2013-02-27 18:20:00,
2013-02-27 13:25:00,73.0,64.2,29.96,NW,316,0.0,0.0,74,0.00,,,0.00,Wunderground v.1.15,2013-02-27 18:25:00,
2013-02-27 13:30:00,72.8,63.6,29.96,NW,316,0.0,0.0,73,0.00,,,0.00,Wunderground v.1.15,2013-02-27 18:30:00,
2013-02-27 13:35:00,72.6,62.7,29.96,NW,316,0.0,0.0,71,0.00,,,0.00,Wunderground v.1.15,2013-02-27 18:35:00,
2013-02-27 13:45:00,72.4,62.5,29.96,NW,316,0.0,0.0,71,0.00,,,0.00,Wunderground v.1.15,2013-02-27 18:45:00,
2013-02-27 13:50:00,72.4,62.9,29.96,NW,316,0.0,0.0,72,0.00,,,0.00,Wunderground v.1.15,2013-02-27 18:50:00,
2013-02-27 13:55:00,72.1,63.0,29.95,NW,316,0.0,0.0,73,0.00,,,0.00,Wunderground v.1.15,2013-02-27 18:55:00,
2013-02-27 14:00:00,71.9,62.8,29.96,NW,316,0.0,0.0,73,0.00,,,0.00,Wunderground v.1.15,2013-02-27 19:00:00,
2013-02-27 14:10:00,71.4,62.3,29.95,NW,315,0.0,0.0,73,0.00,,,0.00,Wunderground v.1.15,2013-02-27 19:10:00,
2013-02-27 14:15:00,71.2,62.5,29.95,NW,315,0.0,0.0,74,0.00,,,0.00,Wunderground v.1.15,2013-02-27 19:15:00,
2013-02-27 14:20:00,71.1,63.1,29.96,NW,315,0.0,0.0,76,0.00,,,0.00,Wunderground v.1.15,2013-02-27 19:20:00,
2013-02-27 14:25:00,70.7,63.9,29.96,NW,315,0.0,0.0,79,0.00,,,0.00,Wunderground v.1.15,2013-02-27 19:25:00,
2013-02-27 14:30:00,70.3,64.5,29.96,NW,315,0.0,0.0,82,0.00,,,0.00,Wunderground v.1.15,2013-02-27 19:30:00,
2013-02-27 14:40:00,68.8,61.7,29.96,NW,313,0.0,0.0,78,0.00,,,0.00,Wunderground v.1.15,2013-02-27 19:40:00,
2013-02-27 14:45:00,68.5,62.1,29.96,NW,313,0.0,0.0,80,0.00,,,0.00,Wunderground v.1.15,2013-02-27 19:45:00,
2013-02-27 14:50:00,68.3,62.9,29.97,NW,313,0.0,0.0,83,0.00,,,0.00,Wunderground v.1.15,2013-02-27 19:50:00,
2013-02-27 15:00:00,67.4,63.4,29.97,NW,313,0.0,5.0,87,0.00,,,0.00,Wunderground v.1.15,2013-02-27 20:00:00,
2013-02-27 15:10:00,66.4,62.7,29.96,NW,312,1.0,5.0,88,0.00,,,0.00,Wunderground v.1.15,2013-02-27 20:10:00,
2013-02-27 15:15:00,65.4,62.1,29.97,NW,312,2.0,5.0,89,0.00,,,0.00,Wunderground v.1.15,2013-02-27 20:15:00,
2013-02-27 15:20:00,65.1,62.4,29.97,NW,312,1.0,1.0,91,0.00,,,0.00,Wunderground v.1.15,2013-02-27 20:20:00,
2013-02-27 15:25:00,64.9,62.5,29.96,NW,312,0.0,5.0,92,0.00,,,0.00,Wunderground v.1.15,2013-02-27 20:25:00,
2013-02-27 15:30:00,64.7,62.3,29.96,NW,313,0.0,5.0,92,0.00,,,0.00,Wunderground v.1.15,2013-02-27 20:30:00,
2013-02-27 15:35:00,64.6,61.9,29.96,NW,312,0.0,5.0,91,0.00,,,0.00,Wunderground v.1.15,2013-02-27 20:35:00,
2013-02-27 15:40:00,64.6,61.9,29.95,NW,313,0.0,5.0,91,0.00,,,0.00,Wunderground v.1.15,2013-02-27 20:40:00,
2013-02-27 15:50:00,64.6,61.9,29.95,NW,312,0.0,5.0,91,0.00,,,0.00,Wunderground v.1.15,2013-02-27 20:50:00,
2013-02-27 15:55:00,64.8,62.4,29.95,NW,313,0.0,5.0,92,0.00,,,0.00,Wunderground v.1.15,2013-02-27 20:55:00,
2013-02-27 16:00:00,64.7,61.7,29.94,NW,313,0.0,0.0,90,0.00,,,0.00,Wunderground v.1.15,2013-02-27 21:00:00,
2013-02-27 16:10:00,64.8,61.8,29.95,NW,312,0.0,0.0,90,0.00,,,0.00,Wunderground v.1.15,2013-02-27 21:10:00,
2013-02-27 16:15:00,64.9,61.9,29.95,NW,312,0.0,0.0,90,0.00,,,0.00,Wunderground v.1.15,2013-02-27 21:15:00,
2013-02-27 16:25:00,65.2,61.9,29.95,NW,312,0.0,0.0,89,0.00,,,0.00,Wunderground v.1.15,2013-02-27 21:25:00,
2013-02-27 16:30:00,65.4,62.1,29.94,NW,313,0.0,0.0,89,0.00,,,0.00,Wunderground v.1.15,2013-02-27 21:30:00,
2013-02-27 16:35:00,65.5,62.2,29.94,NW,312,0.0,0.0,89,0.00,,,0.00,Wunderground v.1.15,2013-02-27 21:35:00,
2013-02-27 16:40:00,65.5,61.9,29.94,NW,313,0.0,0.0,88,0.00,,,0.00,Wunderground v.1.15,2013-02-27 21:40:00,
2013-02-27 16:45:00,65.3,61.3,29.95,NW,312,0.0,0.0,87,0.00,,,0.00,Wunderground v.1.15,2013-02-27 21:45:00,
2013-02-27 16:55:00,65.4,61.4,29.94,NW,312,0.0,0.0,87,0.00,,,0.00,Wunderground v.1.15,2013-02-27 21:55:00,
2013-02-27 17:00:00,65.5,61.5,29.94,NW,312,0.0,0.0,87,0.00,,,0.00,Wunderground v.1.15,2013-02-27 22:00:00,
2013-02-27 17:10:00,65.8,62.1,29.94,NW,312,0.0,0.0,88,0.00,,,0.00,Wunderground v.1.15,2013-02-27 22:10:00,
2013-02-27 17:15:00,65.9,61.6,29.94,NW,312,0.0,0.0,86,0.00,,,0.00,Wunderground v.1.15,2013-02-27 22:15:00,
2013-02-27 17:20:00,66.0,61.7,29.95,NW,312,0.0,0.0,86,0.00,,,0.00,Wunderground v.1.15,2013-02-27 22:20:00,
2013-02-27 17:25:00,66.0,61.7,29.94,NW,312,0.0,0.0,86,0.00,,,0.00,Wunderground v.1.15,2013-02-27 22:25:00,
2013-02-27 17:30:00,66.1,62.1,29.94,NW,312,0.0,0.0,87,0.00,,,0.00,Wunderground v.1.15,2013-02-27 22:30:00,
2013-02-27 17:35:00,66.2,62.5,29.94,NW,312,0.0,0.0,88,0.00,,,0.00,Wunderground v.1.15,2013-02-27 22:35:00,
2013-02-27 17:40:00,66.3,62.3,29.94,NW,312,0.0,0.0,87,0.00,,,0.00,Wunderground v.1.15,2013-02-27 22:40:00,
2013-02-27 17:45:00,66.2,62.2,29.95,NW,313,0.0,0.0,87,0.00,,,0.00,Wunderground v.1.15,2013-02-27 22:45:00,
2013-02-27 17:50:00,66.2,62.5,29.95,NW,313,0.0,0.0,88,0.00,,,0.00,Wunderground v.1.15,2013-02-27 22:50:00,
2013-02-27 17:55:00,66.1,62.8,29.95,NW,312,0.0,0.0,89,0.00,,,0.00,Wunderground v.1.15,2013-02-27 22:55:00,
2013-02-27 18:00:00,66.1,62.8,29.95,NW,312,0.0,0.0,89,0.00,,,0.00,Wunderground v.1.15,2013-02-27 23:00:00,
2013-02-27 18:10:00,66.1,63.1,29.96,NW,312,0.0,0.0,90,0.00,,,0.00,Wunderground v.1.15,2013-02-27 23:10:00,
2013-02-27 18:15:00,66.2,63.2,29.95,NW,312,0.0,0.0,90,0.00,,,0.00,Wunderground v.1.15,2013-02-27 23:15:00,
2013-02-27 18:20:00,66.1,63.1,29.95,NW,312,0.0,0.0,90,0.00,,,0.00,Wunderground v.1.15,2013-02-27 23:20:00,
2013-02-27 18:25:00,66.1,63.1,29.95,NW,312,0.0,0.0,90,0.00,,,0.00,Wunderground v.1.15,2013-02-27 23:25:00,
2013-02-27 18:30:00,65.8,62.8,29.95,NW,312,0.0,0.0,90,0.00,,,0.00,Wunderground v.1.15,2013-02-27 23:30:00,
2013-02-27 18:40:00,66.0,63.3,29.95,NW,312,0.0,0.0,91,0.00,,,0.00,Wunderground v.1.15,2013-02-27 23:40:00,
2013-02-27 18:50:00,66.0,63.3,29.96,NW,313,0.0,0.0,91,0.00,,,0.00,Wunderground v.1.15,2013-02-27 23:50:00,
2013-02-27 18:55:00,65.9,63.5,29.97,NW,309,0.0,3.0,92,0.00,,,0.00,Wunderground v.1.15,2013-02-27 23:55:00,
2013-02-27 19:00:00,65.9,63.8,29.98,NW,308,0.0,0.0,93,0.00,,,0.00,Wunderground v.1.15,2013-02-28 00:00:00,
2013-02-27 19:10:00,65.9,63.8,29.98,NW,307,0.0,0.0,93,0.00,,,0.00,Wunderground v.1.15,2013-02-28 00:10:00,
2013-02-27 19:15:00,65.8,63.7,29.98,NW,307,0.0,0.0,93,0.00,,,0.00,Wunderground v.1.15,2013-02-28 00:15:00,
2013-02-27 19:20:00,65.8,63.7,29.98,NW,307,0.0,0.0,93,0.00,,,0.00,Wunderground v.1.15,2013-02-28 00:20:00,
2013-02-27 19:25:00,65.8,63.7,29.97,NW,307,0.0,0.0,93,0.00,,,0.00,Wunderground v.1.15,2013-02-28 00:25:00,
2013-02-27 19:30:00,65.8,63.7,29.97,NW,307,0.0,0.0,93,0.00,,,0.00,Wunderground v.1.15,2013-02-28 00:30:00,
2013-02-27 19:35:00,65.8,63.7,29.97,NW,307,0.0,0.0,93,0.00,,,0.00,Wunderground v.1.15,2013-02-28 00:35:00,
2013-02-27 19:45:00,65.8,63.7,29.97,NW,307,0.0,0.0,93,0.00,,,0.00,Wunderground v.1.15,2013-02-28 00:45:00,
2013-02-27 19:50:00,65.8,63.7,29.97,NW,307,0.0,0.0,93,0.00,,,0.00,Wunderground v.1.15,2013-02-28 00:50:00,
2013-02-27 19:55:00,65.8,63.7,29.97,NW,307,0.0,0.0,93,0.00,,,0.00,Wunderground v.1.15,2013-02-28 00:55:00,
2013-02-27 20:00:00,65.8,64.0,29.97,NW,307,0.0,0.0,94,0.00,,,0.00,Wunderground v.1.15,2013-02-28 01:00:00,
2013-02-27 20:10:00,65.6,63.5,29.97,NW,307,0.0,0.0,93,0.00,,,0.00,Wunderground v.1.15,2013-02-28 01:10:00,
2013-02-27 20:20:00,65.3,63.2,29.97,NW,307,0.0,0.0,93,0.00,,,0.00,Wunderground v.1.15,2013-02-28 01:20:00,
2013-02-27 20:25:00,65.2,63.1,29.97,NW,307,0.0,0.0,93,0.00,,,0.00,Wunderground v.1.15,2013-02-28 01:25:00,
2013-02-27 20:30:00,65.2,63.4,29.97,NW,307,0.0,0.0,94,0.00,,,0.00,Wunderground v.1.15,2013-02-28 01:30:00,
2013-02-27 20:35:00,65.2,63.4,29.97,NW,307,0.0,0.0,94,0.00,,,0.00,Wunderground v.1.15,2013-02-28 01:35:00,
2013-02-27 20:40:00,65.2,63.4,29.97,NW,307,0.0,0.0,94,0.00,,,0.00,Wunderground v.1.15,2013-02-28 01:40:00,
2013-02-27 20:45:00,65.1,63.3,29.97,NW,307,0.0,0.0,94,0.00,,,0.00,Wunderground v.1.15,2013-02-28 01:45:00,
2013-02-27 20:55:00,65.1,63.3,29.97,NW,307,0.0,0.0,94,0.00,,,0.00,Wunderground v.1.15,2013-02-28 01:55:00,
2013-02-27 21:00:00,65.2,63.4,29.97,NW,307,0.0,0.0,94,0.00,,,0.00,Wunderground v.1.15,2013-02-28 02:00:00,
2013-02-27 21:10:00,65.1,63.3,29.97,NW,307,0.0,0.0,94,0.00,,,0.00,Wunderground v.1.15,2013-02-28 02:10:00,
2013-02-27 21:15:00,65.0,62.9,29.97,NW,307,0.0,0.0,93,0.00,,,0.00,Wunderground v.1.15,2013-02-28 02:15:00,
2013-02-27 21:20:00,65.0,62.9,29.97,NW,307,0.0,0.0,93,0.00,,,0.00,Wunderground v.1.15,2013-02-28 02:20:00,
2013-02-27 21:30:00,65.0,62.9,29.98,NW,307,0.0,0.0,93,0.00,,,0.00,Wunderground v.1.15,2013-02-28 02:30:00,
2013-02-27 21:35:00,65.0,63.2,29.98,NW,307,0.0,0.0,94,0.00,,,0.00,Wunderground v.1.15,2013-02-28 02:35:00,
2013-02-27 21:40:00,65.0,63.2,29.98,NW,307,0.0,0.0,94,0.00,,,0.00,Wunderground v.1.15,2013-02-28 02:40:00,
2013-02-27 21:45:00,65.0,63.2,29.99,NW,307,0.0,0.0,94,0.00,,,0.00,Wunderground v.1.15,2013-02-28 02:45:00,
2013-02-27 21:50:00,65.0,63.2,29.99,NW,307,0.0,0.0,94,0.00,,,0.00,Wunderground v.1.15,2013-02-28 02:50:00,
2013-02-27 22:00:00,64.9,63.4,30.00,NW,307,0.0,0.0,95,0.00,,,0.00,Wunderground v.1.15,2013-02-28 03:00:00,
2013-02-27 22:10:00,64.9,63.4,30.00,NW,307,0.0,0.0,95,0.00,,,0.00,Wunderground v.1.15,2013-02-28 03:10:00,
2013-02-27 22:15:00,64.9,63.4,30.01,NW,307,0.0,0.0,95,0.00,,,0.00,Wunderground v.1.15,2013-02-28 03:15:00,
2013-02-27 22:20:00,64.9,63.4,30.00,NW,307,0.0,0.0,95,0.00,,,0.00,Wunderground v.1.15,2013-02-28 03:20:00,
2013-02-27 22:25:00,64.9,63.4,30.00,NW,307,0.0,0.0,95,0.00,,,0.00,Wunderground v.1.15,2013-02-28 03:25:00,
2013-02-27 22:35:00,65.0,63.5,30.00,NW,307,0.0,0.0,95,0.00,,,0.00,Wunderground v.1.15,2013-02-28 03:35:00,
2013-02-27 22:40:00,65.0,63.5,30.00,NW,307,0.0,0.0,95,0.00,,,0.00,Wunderground v.1.15,2013-02-28 03:40:00,
2013-02-27 22:45:00,65.0,63.5,30.00,NW,307,0.0,0.0,95,0.00,,,0.00,Wunderground v.1.15,2013-02-28 03:45:00,
2013-02-27 22:50:00,65.0,63.2,30.00,NW,307,0.0,0.0,94,0.00,,,0.00,Wunderground v.1.15,2013-02-28 03:50:00,
2013-02-27 22:55:00,65.0,63.2,30.00,NW,307,0.0,0.0,94,0.00,,,0.00,Wunderground v.1.15,2013-02-28 03:55:00,
2013-02-27 23:00:00,65.1,63.3,30.00,NW,307,0.0,0.0,94,0.00,,,0.00,Wunderground v.1.15,2013-02-28 04:00:00,
2013-02-27 23:10:00,65.0,62.9,30.00,NW,307,0.0,0.0,93,0.00,,,0.00,Wunderground v.1.15,2013-02-28 04:10:00,
2013-02-27 23:15:00,65.1,63.0,30.00,NW,307,0.0,0.0,93,0.00,,,0.00,Wunderground v.1.15,2013-02-28 04:15:00,
2013-02-27 23:20:00,65.0,62.9,30.00,NW,307,0.0,0.0,93,0.00,,,0.00,Wunderground v.1.15,2013-02-28 04:20:00,
2013-02-27 23:25:00,65.0,62.9,29.99,NW,307,0.0,0.0,93,0.00,,,0.00,Wunderground v.1.15,2013-02-28 04:25:00,
2013-02-27 23:30:00,65.0,62.9,30.00,NW,307,0.0,0.0,93,0.00,,,0.00,Wunderground v.1.15,2013-02-28 04:30:00,
2013-02-27 23:35:00,65.0,62.9,30.00,NW,307,0.0,0.0,93,0.00,,,0.00,Wunderground v.1.15,2013-02-28 04:35:00,
2013-02-27 23:45:00,64.9,62.8,29.99,NW,307,0.0,0.0,93,0.00,,,0.00,Wunderground v.1.15,2013-02-28 04:45:00,
2013-02-27 23:50:00,64.9,62.8,29.99,NW,307,0.0,0.0,93,0.00,,,0.00,Wunderground v.1.15,2013-02-28 04:50:00,
2013-02-27 23:55:00,64.9,62.8,29.99,NW,307,0.0,0.0,93,0.00,,,0.00,Wunderground v.1.15,2013-02-28 04:55:00,